Hollywood, FL

4:55 AM EDT on May 27, 2017 (GMT -0400)
North Perry

Weather History for KHWO - February, 2013

Change the Weather History Date:

Wednesday, February 27, 2013

  Actual Average (KFLL) Record (KFLL)
Temperature  
Mean Temperature 72 °F -  
Max Temperature 77 °F 75 °F 88 °F (1959)
Min Temperature 66 °F 55 °F 38 °F (1967)
Cooling Degree Days 6    
Growing Degree Days 22 (Base 50)    
Moisture  
Dew Point 67 °F    
Average Humidity 89    
Maximum Humidity 96    
Minimum Humidity 64    
Precipitation  
Precipitation 0.17 in - - ()
Sea Level Pressure  
Sea Level Pressure 29.95 in    
Wind  
Wind Speed 5 mph (NW)    
Max Wind Speed 10 mph    
Max Gust Speed -    
Visibility 10 miles    
Events Rain    
Averages and records for this station are not official NWS values.
T = Trace of Precipitation, MM = Missing Value Source: NWS Daily Summary

Daily Weather History Graph

Daily Weather History Graph

Search for Another Location

Airport or City:

Trip Planner

Search our weather history database for the weather conditions in past years. The results will help you decide how hot, cold, wet, or windy it might be!

Date:

Astronomy

Feb. 27, 2013 Rise Set
Actual Time 6:45 AM EST 6:21 PM EST
Civil Twilight 6:22 AM EST 6:44 PM EST
Nautical Twilight 5:56 AM EST 7:11 PM EST
Astronomical Twilight 5:29 AM EST 7:38 PM EST
Moon 8:21 PM EST 7:36 AM EST
Length of Visible Light 12h 22m
Length of Day
11h 35m
Waning Gibbous, 96% of the Moon is Illuminated
Feb 27
Waning Gibbous
Mar 4
Last Quarter
Mar 11
New
Mar 19
First Quarter
Mar 27
Full

Hourly Weather History & Observations

Time (EST) Temp. Dew Point Humidity Pressure Visibility Wind Dir Wind Speed Gust Speed Precip Events Conditions
12:53 AM 75.9 °F 71.1 °F 85% 29.92 in 10.0 mi SSW 5.8 mph - N/A   Mostly Cloudy
1:53 AM 75.9 °F 71.1 °F 85% 29.91 in 10.0 mi South 3.5 mph - N/A   Clear
2:38 AM 75.2 °F 71.6 °F 89% 29.90 in 10.0 mi Calm Calm - N/A   Mostly Cloudy
2:53 AM 75.0 °F 72.0 °F 90% 29.89 in 10.0 mi WSW 3.5 mph - N/A   Overcast
3:23 AM 75.2 °F 71.6 °F 89% 29.89 in 10.0 mi WSW 3.5 mph - N/A   Overcast
3:37 AM 75.2 °F 71.6 °F 89% 29.90 in 10.0 mi West 5.8 mph - N/A   Overcast
3:46 AM 75.2 °F 71.6 °F 89% 29.89 in 10.0 mi WSW 6.9 mph - N/A   Overcast
3:53 AM 75.0 °F 72.0 °F 90% 29.90 in 10.0 mi West 6.9 mph - N/A   Overcast
4:44 AM 73.4 °F 71.6 °F 94% 29.90 in 10.0 mi West 6.9 mph - N/A   Overcast
4:53 AM 73.9 °F 71.1 °F 91% 29.90 in 10.0 mi West 4.6 mph - N/A   Overcast
5:34 AM 73.4 °F 71.6 °F 94% 29.91 in 10.0 mi WNW 5.8 mph - N/A   Overcast
5:42 AM 73.4 °F 71.6 °F 94% 29.91 in 10.0 mi NW 8.1 mph - N/A   Overcast
5:53 AM 73.0 °F 70.0 °F 90% 29.92 in 10.0 mi WNW 9.2 mph - N/A   Overcast
6:25 AM 71.6 °F 64.4 °F 78% 29.94 in 10.0 mi NNW 9.2 mph - 0.01 in Rain Light Rain
6:53 AM 69.1 °F 66.0 °F 90% 29.95 in 10.0 mi NNW 8.1 mph - 0.07 in Rain Light Rain
7:12 AM 69.8 °F 66.2 °F 88% 29.95 in 10.0 mi NNW 8.1 mph - 0.00 in   Overcast
7:53 AM 69.1 °F 66.0 °F 90% 29.96 in 10.0 mi NNW 6.9 mph - 0.00 in   Overcast
8:53 AM 71.1 °F 64.9 °F 81% 29.98 in 10.0 mi NNW 10.4 mph - N/A   Partly Cloudy
10:53 AM 77.0 °F 64.9 °F 66% 29.99 in 10.0 mi NNW 4.6 mph - N/A   Mostly Cloudy
11:53 AM 75.0 °F 62.1 °F 64% 29.99 in 10.0 mi NNW 5.8 mph - N/A   Mostly Cloudy
12:53 PM 70.0 °F 64.0 °F 81% 29.98 in 5.0 mi WNW 6.9 mph - 0.01 in Rain Light Rain
1:53 PM 68.0 °F 66.0 °F 93% 29.97 in 10.0 mi NW 8.1 mph - 0.03 in Rain Light Rain
2:28 PM 68.0 °F 66.2 °F 94% 29.95 in 10.0 mi NW 5.8 mph - 0.00 in Rain Light Rain
2:53 PM 69.1 °F 66.0 °F 90% 29.95 in 10.0 mi NNW 3.5 mph - 0.01 in Rain Light Rain
3:10 PM 69.8 °F 66.2 °F 88% 29.94 in 10.0 mi NNW 3.5 mph - 0.01 in   Overcast
3:53 PM 70.0 °F 66.0 °F 87% 29.94 in 10.0 mi Calm Calm - 0.01 in   Overcast
4:01 PM 69.8 °F 66.2 °F 88% 29.93 in 10.0 mi Calm Calm - N/A   Overcast
4:35 PM 69.8 °F 66.2 °F 88% 29.94 in 10.0 mi WNW 3.5 mph - 0.00 in Rain Light Rain
4:44 PM 69.8 °F 66.2 °F 88% 29.95 in 10.0 mi WNW 5.8 mph - 0.00 in Rain Light Rain
4:53 PM 70.0 °F 66.9 °F 90% 29.94 in 10.0 mi WNW 6.9 mph - 0.00 in   Overcast
5:06 PM 69.8 °F 66.2 °F 88% 29.95 in 10.0 mi NNW 10.4 mph - N/A   Overcast
5:14 PM 69.8 °F 66.2 °F 88% 29.95 in 10.0 mi NW 9.2 mph - N/A   Overcast
5:53 PM 66.9 °F 64.0 °F 90% 29.96 in 10.0 mi NNW 8.1 mph - N/A   Overcast
6:17 PM 66.2 °F 64.4 °F 94% 29.96 in 10.0 mi NNW 4.6 mph - N/A   Overcast
6:53 PM 66.9 °F 64.0 °F 90% 29.96 in 10.0 mi NW 6.9 mph - N/A   Overcast
7:16 PM 66.2 °F 64.4 °F 94% 29.97 in 10.0 mi North 5.8 mph - N/A   Overcast
7:46 PM 66.2 °F 64.4 °F 94% 29.97 in 10.0 mi North 5.8 mph - N/A   Mostly Cloudy
7:53 PM 66.9 °F 64.0 °F 90% 29.98 in 10.0 mi North 6.9 mph - N/A   Mostly Cloudy
8:53 PM 66.0 °F 64.0 °F 93% 29.99 in 10.0 mi NW 5.8 mph - 0.00 in   Overcast
9:11 PM 66.2 °F 64.4 °F 94% 29.99 in 10.0 mi NW 4.6 mph - 0.01 in Rain Light Rain
9:22 PM 66.2 °F 64.4 °F 94% 29.99 in 10.0 mi Calm Calm - 0.03 in Rain Light Rain
9:30 PM 66.2 °F 64.4 °F 94% 29.99 in 10.0 mi Calm Calm - 0.04 in Rain Light Rain
9:53 PM 66.0 °F 64.9 °F 96% 29.99 in 10.0 mi Calm Calm - 0.04 in   Overcast
10:24 PM 66.2 °F 64.4 °F 94% 29.99 in 10.0 mi Calm Calm - N/A   Overcast
10:53 PM 66.9 °F 64.0 °F 90% 29.99 in 10.0 mi Calm Calm - N/A   Overcast
11:34 PM 66.2 °F 64.4 °F 94% 29.98 in 10.0 mi West 4.6 mph - 0.00 in Rain Light Rain
11:53 PM 66.0 °F 64.0 °F 93% 29.99 in 10.0 mi NW 5.8 mph - 0.00 in   Overcast